Regional Weather Roundup
Issued by NWS Kansas City/Pleasant Hill, MO

Home | Current Version | Previous Version | Graphics & Text | Print | Product List | Glossary Off
Versions: 1 2 3 4 5 6 7 8 9 10 11 12 13 14 15 16 17 18 19 20 21 22 23 24 25 26 27 28 29 30 31 32 33 34 35 36 37 38 39 40 41 42 43 44 45 46 47 48 49 50

000
ASUS43 KEAX 231404
RWREAX

WEATHER ROUNDUP FOR EASTERN KANSAS AND NORTHWEST MISSOURI
NATIONAL WEATHER SERVICE KANSAS CITY/PLEASANT HILL MO
900 AM CDT WED JUL 23 2014

KSZ040-057-103>105-MOZ028-029-037-043-231500-
...KANSAS CITY METROPOLITAN AREA...

CITY           SKY/WX    TMP DP  RH WIND       PRES   REMARKS
K.C. INTL      MOSUNNY   76  66  71 NE10      30.16S
K.C. DOWNTOWN  SUNNY     80  66  62 NE7       30.13F
LEES SUMMIT    SUNNY     77  66  68 NE12      30.15R
OLATHE - IXD   SUNNY     79  66  64 NE12      30.15S
OLATHE - OJC   SUNNY     78  66  66 NE10      30.14S
LAWRENCE       SUNNY     76  68  76 E7        30.14F

$$

MOZ001>008-011>017-020>025-030>033-038>040-044>046-053-054-231500-
...NORTHERN AND CENTRAL MISSOURI...

CITY           SKY/WX    TMP DP  RH WIND       PRES   REMARKS
ST. JOSEPH     SUNNY     75  66  73 NE7       30.17S
MOSBY          SUNNY     75  64  69 NE8       30.15S
WHITEMAN AFB   SUNNY     77  61  56 N10       30.12R
CLINTON        PTSUNNY   79  72  78 NE7       30.11S
SEDALIA        SUNNY     79  69  71 NE9       30.13R
WARSAW         NOT AVBL
MARSHALL       SUNNY     79  72  78 N7        30.14R HAZE
CHILLICOTHE      N/A     77  65  66 NE9       30.16R
KIRKSVILLE     SUNNY     75  67  76 NE12      30.15R

$$

MOZ041-047>049-056>058-063>065-088>090-097-231500-
...EASTERN AND SOUTHERN MISSOURI...

CITY           SKY/WX    TMP DP  RH WIND       PRES   REMARKS
ST. LOUIS INTL CLOUDY    81  74  79 N9        30.06R
SPIRIT OF STL  CLOUDY    80  73  79 N8        30.06R
COLUMBIA       SUNNY     80  70  71 N12       30.11R
JEFFERSON CITY MOSUNNY   80  71  74 N9        30.08R
HANNIBAL       MOSUNNY   77  68  73 NE7       30.11S
ROLLA          PTSUNNY   82  75  79 N9        30.07S
OSAGE BEACH    SUNNY     81  72  74 N5        30.08S
SPRINGFIELD    MOSUNNY   82  76  81 NW10      30.10R
BRANSON        SUNNY     86  75  70 NW7       30.12R HX  95
NEVADA         SUNNY     81  73  78 N7        30.12S
JOPLIN         SUNNY     83  75  77 W8        30.11R HX  90
WEST PLAINS    MOSUNNY   80  73  79 W3        30.09S
MALDEN         MOSUNNY   81  72  74 SW8       30.06F

$$

IAZ060-094-KSZ022-034>040-054-083-096-NEZ052-066-093-231500-
...KANSAS...SOUTHEAST NEBRASKA AND IOWA...

CITY           SKY/WX    TMP DP  RH WIND       PRES   REMARKS
TOPEKA         SUNNY     79  67  66 NE10      30.15F
MANHATTAN      LGT RAIN  75  63  66 NW7       30.24R
EMPORIA        CLOUDY    78  70  76 NE9       30.16R
CHANUTE        SUNNY     82  73  74 NE14      30.12S
WICHITA        PTSUNNY   81  75  82 NE9       30.15R
OMAHA          MOSUNNY   71  59  65 N9        30.24R
LINCOLN        SUNNY     73  58  59 N5        30.27R
FALLS CITY     SUNNY     74  64  71 N8        30.19S
LAMONI         SUNNY     72  64  76 N8        30.18R
DES MOINES     MOSUNNY   74  62  66 N6        30.20R

$$




USA.gov is the U.S. government's official web portal to all federal, state and local government web resources and services.